Strait of Georgia - north of Nanaimo: Past 24 Hour Conditions

 

Halibut Bank - 46146

12:00 PM PDT 29 August 2016Buoy position: 49.34N 123.72W
Disclaimer

This table is a summary of hourly weather conditions for the past 24 hours.
Please note that these observations might not always be representative of weather conditions over their associated marine area.

Date / Time
(PDT)
Wind(knots) Wave height(m) Wave period(s) Pressure(kPa) Air tempC) Water tempC)
29 August 2016
12:00 SE 12 gust 14 0.4 3.0 101.7 15 16
11:00 SSE 12 gust 14 0.4 3.0 101.7 15 16
10:00 SE 18 gust 19 0.4 2.0 101.7 15 16
9:00 SE 14 gust 16 0.3 2.0 101.8 16 16
8:00 ESE 12 gust 14 0.1 2.0 101.7 16 16
7:00 E 8 gust 10 0.1 3.0 101.8 16 16
6:00 ENE 4 gust 4 0.1 3.0 101.8 16 16
5:00 NE 4 gust 6 0.1 3.0 101.7 16 16
4:00 NNE 2 gust 2 0.1 3.0 101.7 16 16
3:00 E 4 gust 6 0.1 3.0 101.7 16 16
2:00 ENE 2 gust 2 0.1 3.0 101.7 16 16
1:00 SW 2 gust 4 0.1 4.0 101.8 16 16
0:00 S 8 gust 10 0.2 3.0 101.8 16 16
28 August 2016
23:00 S 6 gust 8 0.2 3.0 101.8 16 16
22:00 SSE 6 gust 8 0.3 3.0 101.8 16 16
21:00 ESE 8 gust 8 0.4 3.0 101.8 16 16
20:00 SE 10 gust 10 0.5 3.0 101.8 16 16
19:00 SE 12 gust 16 0.5 3.0 101.8 16 16
18:00 SE 14 gust 18 0.6 3.0 101.8 16 16
17:00 SE 14 gust 16 0.5 3.0 101.9 16 16
16:00 ESE 12 gust 14 0.5 4.0 101.8 16 16
15:00 SSE 14 gust 16 0.5 4.0 101.9 16 16
14:00 SE 14 gust 16 0.6 4.0 101.9 16 16
13:00 ESE 16 gust 18 0.7 4.0 101.9 16 16
12:00 ESE 16 gust 19 0.7 4.0 101.9 16 16

Zoom-in to make a selection

Map of Pacific - Georgia Basin marine weather areas Tsawwassen Ferry Terminal Sentry Shoal - 46131 Halibut Bank - 46146 La Perouse Bank - 46206 Discovery Island Esquimalt Harbour Kelp Reefs Malahat Race Rocks Lightstation Saturna Island Sheringham Point University of Victoria Victoria Gonzales Victoria Int'l Airport Ballenas Islands Campbell River Airport Comox Airport Entrance Island Fanny Island Nanaimo Airport Sisters Islets Estevan Point Tofino Airport Grief Point Powell River Airport Sechelt Point Atkinson Sand Heads Lightstation Vancouver Harbour Vancouver Int'l Airport West Vancouver Port Alberni Howe Sound - Pam Rocks Squamish Airport
Legend:
buoy Buoy
land station Land Station

Pacific - Georgia Basin Area

Another Region

What we are doing

Features

Follow us on Twitter!

Get timely local #weather alerts directly to your Twitter feed

Be Air Aware

Air Quality Health Index

Get your weather, plan your day.

Extreme Heat Protection

Date modified: